Location: Hermaringen
(48.5952°N, 10.2585°E)
Time: 03:04:48
(UTC+00:00)

Tsikada Rocket - Pass Details

Date: 18 November 2025
Orbit: 958 x 1007 km, 82.9° (Epoch: 04 December)

Event Time Altitude Azimuth Distance (km) Brightness Sun altitude
Rises 16:26:38 0° 349° (N) 3,750 7.0 -8.5°
Reaches altitude 10° 16:29:11 10° 349° (N) 2,793 6.3 -8.9°
Maximum altitude 16:35:37 79° 264° (W) 1,023 4.3 -9.9°
Drops below altitude 10° 16:41:56 10° 178° (S) 2,750 6.6 -10.9°
Sets 16:44:26 0° 178° (S) 3,688 7.2 -11.3°
